,,Stat5,,Stat1,,Stat2,,Stat3,,Stat4,,Wind1,,Wind1,
time,status,PA1M_AVG,status,PR1M_SUM,status,RH1M_AVG,status,SR1M_AVG,status,TA1M_AVG,status,W1dAve1m,status,W1sAve1m,
2001-04-06, 00:00:01,VALID,918.464,VALID,0,VALID,98.5061,VALID,-0.0339617,VALID,20.8578,VALID,87,VALID,0.541596,
2001-04-06, 00:01:00,VALID,918.447,VALID,0,VALID,98.4985,VALID,-0.0169808,VALID,20.8543,VALID,87,VALID,0.788218,
2001-04-06, 00:02:00,VALID,918.425,VALID,0,VALID,98.4756,VALID,0,VALID,20.8411,VALID,85,VALID,1.00581,
2001-04-06, 00:03:00,VALID,918.419,VALID,0,VALID,98.4692,VALID,-0.0169808,VALID,20.8414,VALID,95,VALID,0.598395,
2001-04-06, 00:04:00,VALID,918.37,VALID,0.2,VALID,98.4896,VALID,-0.0339617,VALID,20.8446,VALID,95,VALID,0.253701,
2001-04-06, 00:05:00,VALID,918.343,VALID,0,VALID,98.501,VALID,0,VALID,20.8578,VALID,105,VALID,0.318788,
2001-04-06, 00:06:00,VALID,918.311,VALID,0,VALID,98.5201,VALID,-0.0169808,VALID,20.8607,VALID,124,VALID,0.445313,
2001-04-06, 00:07:00,VALID,918.261,VALID,0,VALID,98.5252,VALID,-0.0169808,VALID,20.8707,VALID,127,VALID,0.0885417,
2001-04-06, 00:08:00,VALID,918.238,VALID,0,VALID,98.571,VALID,-0.0169808,VALID,20.8874,VALID,125,VALID,0.183388,
2001-04-06, 00:09:00,VALID,918.203,VALID,0.2,VALID,98.6028,VALID,0,VALID,20.9229,VALID,103,VALID,0.278392,
2001-04-06, 00:10:00,VALID,918.176,VALID,0,VALID,98.5748,VALID,0,VALID,20.8963,VALID,11,VALID,0.204153,
2001-04-06, 00:11:00,VALID,918.144,VALID,0,VALID,98.4858,VALID,-0.0339617,VALID,20.8282,VALID,307,VALID,0.35259,
2001-04-06, 00:12:00,VALID,918.113,VALID,0,VALID,98.4718,VALID,0,VALID,20.8195,VALID,307,VALID,0.0117188,
2001-04-06, 00:13:00,VALID,918.086,VALID,0.2,VALID,98.4959,VALID,-0.0679233,VALID,20.8063,VALID,280,VALID,0.161951,
2001-04-06, 00:14:00,VALID,918.073,VALID,0,VALID,98.5125,VALID,-0.0509425,VALID,20.8001,VALID,274,VALID,0.472098,
2001-04-06, 00:15:00,VALID,918.085,VALID,0,VALID,98.5163,VALID,0,VALID,20.7972,VALID,259,VALID,0.533306,
2001-04-06, 00:16:00,VALID,918.104,VALID,0.2,VALID,98.5277,VALID,-0.0169808,VALID,20.7835,VALID,258,VALID,0.483953,
2001-04-06, 00:17:00,VALID,918.118,VALID,0,VALID,98.5443,VALID,0,VALID,20.7805,VALID,265,VALID,0.370066,
2001-04-06, 00:18:00,VALID,918.128,VALID,0,VALID,98.5735,VALID,-0.0169808,VALID,20.7837,VALID,282,VALID,0.10114,
2001-04-06, 00:19:00,VALID,918.138,VALID,0.2,VALID,98.5824,VALID,0,VALID,20.7837,VALID,339,VALID,0.118555,
2001-04-06, 00:20:00,VALID,918.131,VALID,0,VALID,98.6142,VALID,-0.0339617,VALID,20.7837,VALID,113,VALID,0.0703125,
2001-04-06, 00:21:00,VALID,918.12,VALID,0.2,VALID,98.6574,VALID,-0.0339617,VALID,20.8195,VALID,197,VALID,0.00173611,
2001-04-06, 00:22:00,VALID,918.144,VALID,0,VALID,98.6396,VALID,0,VALID,20.8193,VALID,251,VALID,0.451823,
2001-04-06, 00:23:00,VALID,918.135,VALID,0,VALID,98.6256,VALID,0,VALID,20.8031,VALID,265,VALID,0.45477,
2001-04-06, 00:24:00,VALID,918.108,VALID,0.2,VALID,98.6206,VALID,-0.0509425,VALID,20.7797,VALID,257,VALID,0.477232,
2001-04-06, 00:25:00,VALID,918.067,VALID,0,VALID,98.6155,VALID,-0.0339617,VALID,20.7805,VALID,216,VALID,0.27793,
2001-04-06, 00:26:00,VALID,918.044,VALID,0.2,VALID,98.6841,VALID,-0.0339617,VALID,20.7996,VALID,150,VALID,0.61238,
2001-04-06, 00:27:00,VALID,918.005,VALID,0,VALID,98.6905,VALID,0,VALID,20.8225,VALID,136,VALID,0.868421,
2001-04-06, 00:28:00,VALID,917.981,VALID,0,VALID,98.6727,VALID,0,VALID,20.8026,VALID,108,VALID,0.442023,
2001-04-06, 00:29:00,VALID,917.987,VALID,0.2,VALID,98.693,VALID,0,VALID,20.8225,VALID,32,VALID,0.454883,
2001-04-06, 00:30:00,VALID,918.003,VALID,0,VALID,98.6346,VALID,-0.0169808,VALID,20.7646,VALID,313,VALID,0.740748,
2001-04-06, 00:31:00,VALID,918.009,VALID,0.4,VALID,98.5608,VALID,-0.0169808,VALID,20.7062,VALID,341,VALID,1.17825,
2001-04-06, 00:32:00,VALID,918.003,VALID,0.2,VALID,98.4718,VALID,-0.0339617,VALID,20.6152,VALID,333,VALID,1.41406,
2001-04-06, 00:33:00,VALID,918.001,VALID,0.2,VALID,98.3319,VALID,0,VALID,20.5091,VALID,11,VALID,1.29123,
2001-04-06, 00:34:00,VALID,917.959,VALID,0.2,VALID,98.4146,VALID,-0.0169808,VALID,20.484,VALID,54,VALID,0.863839,
2001-04-06, 00:35:00,VALID,917.943,VALID,0.2,VALID,98.5697,VALID,-0.0339617,VALID,20.5322,VALID,220,VALID,0.542411,
2001-04-06, 00:36:00,VALID,917.93,VALID,0,VALID,98.5379,VALID,-0.0169808,VALID,20.5064,VALID,217,VALID,0.627956,
2001-04-06, 00:37:00,VALID,917.913,VALID,0.2,VALID,98.5583,VALID,-0.0509425,VALID,20.4735,VALID,285,VALID,0.7481,
2001-04-06, 00:38:00,VALID,917.897,VALID,0,VALID,98.5913,VALID,-0.0169808,VALID,20.4706,VALID,121,VALID,0.306538,
2001-04-06, 00:39:00,VALID,917.883,VALID,0.2,VALID,98.6295,VALID,-0.0169808,VALID,20.4512,VALID,157,VALID,0.349466,
2001-04-06, 00:40:00,VALID,917.88,VALID,0,VALID,98.5608,VALID,-0.0169808,VALID,20.3702,VALID,356,VALID,1.13384,
2001-04-06, 00:41:00,VALID,917.864,VALID,0,VALID,98.5328,VALID,-0.0169808,VALID,20.3287,VALID,329,VALID,0.504317,
2001-04-06, 00:42:00,VALID,917.858,VALID,0.2,VALID,98.5621,VALID,-0.0679233,VALID,20.3093,VALID,333,VALID,0.508464,
2001-04-06, 00:43:00,VALID,917.854,VALID,0,VALID,98.5163,VALID,-0.0509425,VALID,20.2705,VALID,284,VALID,0.747889,
2001-04-06, 00:44:00,VALID,917.853,VALID,0,VALID,98.4896,VALID,-0.0339617,VALID,20.2121,VALID,282,VALID,0.730357,
2001-04-06, 00:45:00,VALID,917.854,VALID,0.2,VALID,98.5252,VALID,-0.0169808,VALID,20.196,VALID,304,VALID,0.533923,
2001-04-06, 00:46:00,VALID,917.865,VALID,0,VALID,98.5913,VALID,-0.0169808,VALID,20.2059,VALID,314,VALID,0.0101351,
2001-04-06, 00:47:00,VALID,917.847,VALID,0.2,VALID,98.6002,VALID,-0.0679233,VALID,20.1761,VALID,279,VALID,0.160156,
2001-04-06, 00:48:00,VALID,917.84,VALID,0,VALID,98.6028,VALID,0,VALID,20.1572,VALID,255,VALID,0.576647,
2001-04-06, 00:49:00,VALID,917.84,VALID,0,VALID,98.5532,VALID,0,VALID,20.1122,VALID,285,VALID,1.00684,
2001-04-06, 00:50:00,VALID,917.837,VALID,0.2,VALID,98.1679,VALID,0,VALID,19.9509,VALID,324,VALID,1.4007,
2001-04-06, 00:51:00,VALID,917.82,VALID,0,VALID,98.1259,VALID,0,VALID,19.9184,VALID,321,VALID,0.368707,
2001-04-06, 00:52:00,VALID,917.81,VALID,0.2,VALID,98.1819,VALID,0,VALID,19.8918,VALID,323,VALID,0.465278,
2001-04-06, 00:53:00,VALID,917.79,VALID,0,VALID,98.2289,VALID,0,VALID,19.8756,VALID,329,VALID,0.280839,
2001-04-06, 00:54:00,VALID,917.776,VALID,0,VALID,98.337,VALID,0.0169808,VALID,19.8988,VALID,333,VALID,0,
2001-04-06, 00:55:00,VALID,917.769,VALID,0.2,VALID,98.4502,VALID,0,VALID,19.9209,VALID,25,VALID,0,
2001-04-06, 00:56:00,VALID,917.768,VALID,0,VALID,98.5315,VALID,0,VALID,19.9338,VALID,86,VALID,0.69391,
2001-04-06, 00:57:00,VALID,917.745,VALID,0,VALID,98.5939,VALID,0,VALID,19.9634,VALID,93,VALID,1.12603,
2001-04-06, 00:58:00,VALID,917.742,VALID,0.2,VALID,98.6346,VALID,0,VALID,19.9731,VALID,92,VALID,1.20127,
2001-04-06, 00:59:00,VALID,917.715,VALID,0,VALID,98.6702,VALID,0,VALID,20.0021,VALID,100,VALID,0.999414,
2001-04-06, 01:00:00,VALID,917.706,VALID,0,VALID,98.6676,VALID,0,VALID,20.0088,VALID,96,VALID,0.736842,
2001-04-06, 01:01:00,VALID,917.701,VALID,0,VALID,98.6447,VALID,0,VALID,19.9736,VALID,92,VALID,1.03022,
2001-04-06, 01:02:00,VALID,917.679,VALID,0.2,VALID,98.6155,VALID,0,VALID,19.9373,VALID,95,VALID,1.06081,
2001-04-06, 01:03:00,VALID,917.663,VALID,0,VALID,98.6346,VALID,-0.0509425,VALID,19.9477,VALID,95,VALID,0.767144,
2001-04-06, 01:04:00,VALID,917.65,VALID,0,VALID,98.6562,VALID,0,VALID,19.9343,VALID,89,VALID,0.811161,
2001-04-06, 01:05:00,VALID,917.646,VALID,0,VALID,98.6435,VALID,0.0169808,VALID,19.9345,VALID,89,VALID,0.612909,
2001-04-06, 01:06:00,VALID,917.635,VALID,0,VALID,98.6727,VALID,0,VALID,19.9311,VALID,98,VALID,0.4375,
2001-04-06, 01:07:00,VALID,917.628,VALID,0.2,VALID,98.6422,VALID,-0.0169808,VALID,19.9181,VALID,90,VALID,0.617188,
2001-04-06, 01:08:00,VALID,917.615,VALID,0,VALID,98.6562,VALID,0,VALID,19.9052,VALID,84,VALID,0.420436,
2001-04-06, 01:09:00,VALID,917.592,VALID,0,VALID,98.6269,VALID,0,VALID,19.8896,VALID,84,VALID,0.223323,
2001-04-06, 01:10:00,VALID,917.572,VALID,0,VALID,98.6816,VALID,0,VALID,19.9025,VALID,84,VALID,0.00328947,
2001-04-06, 01:11:00,VALID,917.559,VALID,0,VALID,98.7045,VALID,-0.0169808,VALID,19.9057,VALID,92,VALID,0.0945724,
2001-04-06, 01:12:00,VALID,917.544,VALID,0.2,VALID,98.7503,VALID,-0.0169808,VALID,19.9286,VALID,94,VALID,0.129123,
2001-04-06, 01:13:00,VALID,917.541,VALID,0,VALID,98.7681,VALID,0.0169808,VALID,19.9313,VALID,98,VALID,0,
2001-04-06, 01:14:00,VALID,917.53,VALID,0,VALID,98.7795,VALID,0,VALID,19.9345,VALID,98,VALID,0,
2001-04-06, 01:15:00,VALID,917.531,VALID,0,VALID,98.8037,VALID,0,VALID,19.9509,VALID,99,VALID,0,
2001-04-06, 01:16:00,VALID,917.496,VALID,0,VALID,98.8253,VALID,-0.0509425,VALID,19.9574,VALID,100,VALID,0,
2001-04-06, 01:17:00,VALID,917.5,VALID,0.2,VALID,98.8406,VALID,0,VALID,19.9671,VALID,100,VALID,0,
2001-04-06, 01:18:00,VALID,917.489,VALID,0,VALID,98.8622,VALID,0,VALID,19.9805,VALID,100,VALID,0,
2001-04-06, 01:19:00,VALID,917.469,VALID,0,VALID,98.8533,VALID,-0.0339617,VALID,19.9736,VALID,100,VALID,0,
2001-04-06, 01:20:00,VALID,917.438,VALID,0,VALID,98.8444,VALID,0,VALID,19.9639,VALID,100,VALID,0,
2001-04-06, 01:21:00,VALID,917.423,VALID,0.2,VALID,98.8431,VALID,-0.0169808,VALID,19.9577,VALID,100,VALID,0,
2001-04-06, 01:22:00,VALID,917.411,VALID,0,VALID,98.8673,VALID,0,VALID,19.9537,VALID,100,VALID,0,
2001-04-06, 01:23:00,VALID,917.397,VALID,0,VALID,98.8851,VALID,-0.0169808,VALID,19.9738,VALID,100,VALID,0,
2001-04-06, 01:24:00,VALID,917.368,VALID,0,VALID,98.88,VALID,0,VALID,19.9442,VALID,100,VALID,0,
2001-04-06, 01:25:00,VALID,917.357,VALID,0,VALID,98.8812,VALID,0,VALID,19.938,VALID,100,VALID,0,
2001-04-06, 01:26:00,VALID,917.342,VALID,0.2,VALID,98.8812,VALID,0,VALID,19.9249,VALID,99,VALID,0,
2001-04-06, 01:27:00,VALID,917.338,VALID,0,VALID,98.894,VALID,-0.0339617,VALID,19.9321,VALID,99,VALID,0,
2001-04-06, 01:28:00,VALID,917.311,VALID,0,VALID,98.9041,VALID,-0.0169808,VALID,19.9152,VALID,90,VALID,0,
2001-04-06, 01:29:00,VALID,917.3,VALID,0,VALID,98.9283,VALID,0,VALID,19.9318,VALID,67,VALID,0,
2001-04-06, 01:30:00,VALID,917.301,VALID,0,VALID,98.9397,VALID,0.0169808,VALID,19.938,VALID,62,VALID,0,
2001-04-06, 01:31:00,VALID,917.306,VALID,0,VALID,98.955,VALID,0,VALID,19.9477,VALID,62,VALID,0,
2001-04-06, 01:32:00,VALID,917.308,VALID,0.2,VALID,98.9486,VALID,0,VALID,19.9415,VALID,62,VALID,0,
2001-04-06, 01:33:00,VALID,917.281,VALID,0,VALID,98.9626,VALID,0,VALID,19.9216,VALID,62,VALID,0,
2001-04-06, 01:34:00,VALID,917.268,VALID,0,VALID,98.9741,VALID,-0.0169808,VALID,19.9313,VALID,62,VALID,0,
2001-04-06, 01:35:00,VALID,917.253,VALID,0,VALID,98.9715,VALID,-0.0169808,VALID,19.948,VALID,62,VALID,0,
2001-04-06, 01:36:00,VALID,917.241,VALID,0,VALID,98.9779,VALID,0,VALID,19.9313,VALID,62,VALID,0,
2001-04-06, 01:37:00,VALID,917.196,VALID,0,VALID,98.9817,VALID,-0.0339617,VALID,19.9316,VALID,62,VALID,0,
2001-04-06, 01:38:00,VALID,917.17,VALID,0.2,VALID,98.9919,VALID,-0.0679233,VALID,19.9418,VALID,62,VALID,0,
2001-04-06, 01:39:00,VALID,917.132,VALID,0,VALID,99.0224,VALID,-0.0679233,VALID,19.9835,VALID,62,VALID,0,
2001-04-06, 01:40:00,VALID,917.111,VALID,0,VALID,99.0377,VALID,-0.0679233,VALID,19.9929,VALID,62,VALID,0,
2001-04-06, 01:41:00,VALID,917.092,VALID,0,VALID,99.044,VALID,-0.0679233,VALID,20.0158,VALID,63,VALID,0,
2001-04-06, 01:42:00,VALID,917.055,VALID,0.2,VALID,99.0377,VALID,-0.0509425,VALID,20.0287,VALID,69,VALID,0,
2001-04-06, 01:43:00,VALID,917.038,VALID,0,VALID,99.0402,VALID,-0.0849042,VALID,20.0551,VALID,69,VALID,0,
2001-04-06, 01:44:00,VALID,917.007,VALID,0,VALID,99.0402,VALID,-0.0679233,VALID,20.0379,VALID,69,VALID,0,
2001-04-06, 01:45:00,VALID,916.98,VALID,0,VALID,99.0351,VALID,-0.0339617,VALID,20.0349,VALID,91,VALID,0,
2001-04-06, 01:46:00,VALID,916.957,VALID,0,VALID,99.0504,VALID,-0.0849042,VALID,20.0481,VALID,92,VALID,0,
2001-04-06, 01:47:00,VALID,916.936,VALID,0.2,VALID,99.0605,VALID,-0.0509425,VALID,20.0809,VALID,92,VALID,0,
2001-04-06, 01:48:00,VALID,916.915,VALID,0,VALID,99.0669,VALID,-0.101885,VALID,20.0931,VALID,92,VALID,0,
2001-04-06, 01:49:00,VALID,916.907,VALID,0,VALID,99.0669,VALID,-0.0679233,VALID,20.107,VALID,92,VALID,0,
2001-04-06, 01:50:00,VALID,916.88,VALID,0,VALID,99.072,VALID,-0.0849042,VALID,20.113,VALID,94,VALID,0,
2001-04-06, 01:51:00,VALID,916.865,VALID,0,VALID,99.0745,VALID,-0.0849042,VALID,20.1291,VALID,97,VALID,0,
2001-04-06, 01:52:00,VALID,916.871,VALID,0.2,VALID,99.072,VALID,-0.0169808,VALID,20.1308,VALID,97,VALID,0,
2001-04-06, 01:53:00,VALID,916.877,VALID,0,VALID,99.0656,VALID,0.0509425,VALID,20.108,VALID,96,VALID,0,
2001-04-06, 01:54:00,VALID,916.859,VALID,0,VALID,99.0504,VALID,0.0849042,VALID,20.0617,VALID,96,VALID,0,
2001-04-06, 01:55:00,VALID,916.851,VALID,0,VALID,99.0555,VALID,0.0679233,VALID,20.0563,VALID,96,VALID,0,
2001-04-06, 01:56:00,VALID,916.833,VALID,0,VALID,99.0593,VALID,0,VALID,20.0498,VALID,96,VALID,0,
2001-04-06, 01:57:00,VALID,916.816,VALID,0,VALID,99.0542,VALID,0,VALID,20.0337,VALID,96,VALID,0,
2001-04-06, 01:58:00,VALID,916.781,VALID,0,VALID,99.0529,VALID,0.0849042,VALID,20.0175,VALID,96,VALID,0,
2001-04-06, 01:59:00,VALID,916.76,VALID,0.2,VALID,99.0542,VALID,0.0679233,VALID,19.9855,VALID,96,VALID,0,
2001-04-06, 02:00:00,VALID,916.749,VALID,0,VALID,99.0567,VALID,0.0509425,VALID,19.9594,VALID,96,VALID,0,
2001-04-06, 02:01:00,VALID,916.735,VALID,0,VALID,99.0555,VALID,0.0679233,VALID,19.9306,VALID,96,VALID,0,
2001-04-06, 02:02:00,VALID,916.706,VALID,0,VALID,99.0733,VALID,0.0169808,VALID,19.9271,VALID,96,VALID,0,
2001-04-06, 02:03:00,VALID,916.68,VALID,0,VALID,99.0783,VALID,0.0339617,VALID,19.9174,VALID,72,VALID,0,
2001-04-06, 02:04:00,VALID,916.666,VALID,0.2,VALID,99.0771,VALID,0.0339617,VALID,19.9012,VALID,7,VALID,0,
2001-04-06, 02:05:00,VALID,916.657,VALID,0,VALID,99.0885,VALID,0.0509425,VALID,19.9012,VALID,7,VALID,0,
2001-04-06, 02:06:00,VALID,916.646,VALID,0,VALID,99.1127,VALID,0.0509425,VALID,19.9074,VALID,7,VALID,0,
2001-04-06, 02:07:00,VALID,916.628,VALID,0,VALID,99.1165,VALID,-0.0169808,VALID,19.9243,VALID,7,VALID,0,
2001-04-06, 02:08:00,VALID,916.639,VALID,0,VALID,99.1165,VALID,-0.0679233,VALID,19.9348,VALID,82,VALID,0.0639391,
2001-04-06, 02:09:00,VALID,916.629,VALID,0,VALID,99.119,VALID,-0.0339617,VALID,19.977,VALID,114,VALID,0.605564,
2001-04-06, 02:10:00,VALID,916.632,VALID,0,VALID,99.1406,VALID,-0.0509425,VALID,20.0066,VALID,103,VALID,0.996711,
2001-04-06, 02:11:00,VALID,916.633,VALID,0.2,VALID,99.1305,VALID,-0.0509425,VALID,20.019,VALID,99,VALID,0.984786,
2001-04-06, 02:12:00,VALID,916.647,VALID,0,VALID,99.1318,VALID,-0.0339617,VALID,20.0066,VALID,91,VALID,0.855686,
2001-04-06, 02:13:00,VALID,916.662,VALID,0,VALID,99.1305,VALID,-0.0679233,VALID,20.0096,VALID,103,VALID,0.733319,
2001-04-06, 02:14:00,VALID,916.677,VALID,0,VALID,99.1419,VALID,-0.0679233,VALID,20.0153,VALID,101,VALID,0.83683,
2001-04-06, 02:15:00,VALID,916.682,VALID,0,VALID,99.1178,VALID,-0.0509425,VALID,20.0059,VALID,96,VALID,1.0111,
2001-04-06, 02:16:00,VALID,916.688,VALID,0.2,VALID,99.0974,VALID,-0.0169808,VALID,19.9517,VALID,87,VALID,0.827914,
2001-04-06, 02:17:00,VALID,916.684,VALID,0,VALID,99.0987,VALID,-0.0849042,VALID,19.9418,VALID,55,VALID,0.461965,
2001-04-06, 02:18:00,VALID,916.701,VALID,0,VALID,99.1038,VALID,-0.0509425,VALID,19.9345,VALID,66,VALID,0.255701,
2001-04-06, 02:19:00,VALID,916.699,VALID,0,VALID,99.1089,VALID,-0.101885,VALID,19.9485,VALID,84,VALID,0.708008,
2001-04-06, 02:20:00,VALID,916.703,VALID,0,VALID,99.1139,VALID,-0.0679233,VALID,19.9291,VALID,95,VALID,1.22101,
2001-04-06, 02:21:00,VALID,916.715,VALID,0,VALID,99.0911,VALID,-0.0849042,VALID,19.8901,VALID,55,VALID,0.716363,
2001-04-06, 02:22:00,VALID,916.726,VALID,0,VALID,99.0694,VALID,-0.0509425,VALID,19.822,VALID,76,VALID,1.02387,
2001-04-06, 02:23:00,VALID,916.708,VALID,0.2,VALID,99.0936,VALID,-0.0339617,VALID,19.8414,VALID,93,VALID,0.663035,
2001-04-06, 02:24:00,VALID,916.7,VALID,0,VALID,99.1114,VALID,-0.0679233,VALID,19.8575,VALID,99,VALID,0.950446,
2001-04-06, 02:25:00,VALID,916.695,VALID,0,VALID,99.1394,VALID,-0.0339617,VALID,19.8796,VALID,97,VALID,0.668555,
2001-04-06, 02:26:00,VALID,916.702,VALID,0,VALID,99.1445,VALID,-0.0849042,VALID,19.8901,VALID,102,VALID,0.645032,
2001-04-06, 02:27:00,VALID,916.709,VALID,0,VALID,99.1559,VALID,-0.0679233,VALID,19.8998,VALID,99,VALID,0.98602,
2001-04-06, 02:28:00,VALID,916.677,VALID,0,VALID,99.1445,VALID,-0.0679233,VALID,19.893,VALID,84,VALID,1.56846,
2001-04-06, 02:29:00,VALID,916.681,VALID,0.2,VALID,99.1318,VALID,-0.0509425,VALID,19.861,VALID,82,VALID,0.619922,
2001-04-06, 02:30:00,VALID,916.681,VALID,0,VALID,99.1394,VALID,-0.0509425,VALID,19.8478,VALID,92,VALID,0.099301,
2001-04-06, 02:31:00,VALID,916.687,VALID,0,VALID,99.1546,VALID,-0.0679233,VALID,19.8771,VALID,115,VALID,0.739104,
2001-04-06, 02:32:00,VALID,916.688,VALID,0,VALID,99.1292,VALID,-0.0679233,VALID,19.858,VALID,70,VALID,0.812711,
2001-04-06, 02:33:00,VALID,916.702,VALID,0,VALID,99.1597,VALID,-0.0849042,VALID,19.8645,VALID,94,VALID,1.19379,
2001-04-06, 02:34:00,VALID,916.694,VALID,0.2,VALID,99.1635,VALID,-0.0849042,VALID,19.8906,VALID,105,VALID,1.22455,
2001-04-06, 02:35:00,VALID,916.692,VALID,0,VALID,99.1763,VALID,-0.0169808,VALID,19.8965,VALID,103,VALID,0.762091,
2001-04-06, 02:36:00,VALID,916.693,VALID,0,VALID,99.1775,VALID,-0.0849042,VALID,19.9259,VALID,117,VALID,0.0472973,
2001-04-06, 02:37:00,VALID,916.683,VALID,0,VALID,99.1788,VALID,-0.0339617,VALID,19.9189,VALID,97,VALID,0.165963,
2001-04-06, 02:38:00,VALID,916.688,VALID,0.2,VALID,99.175,VALID,0.0169808,VALID,19.9286,VALID,105,VALID,0.281044,
2001-04-06, 02:39:00,VALID,916.677,VALID,0,VALID,99.1648,VALID,0.0169808,VALID,19.899,VALID,99,VALID,0.834794,
2001-04-06, 02:40:00,VALID,916.671,VALID,0,VALID,99.1737,VALID,0,VALID,19.9025,VALID,93,VALID,0.951275,
2001-04-06, 02:41:00,VALID,916.662,VALID,0,VALID,99.1724,VALID,0,VALID,19.9089,VALID,102,VALID,0.451275,
2001-04-06, 02:42:00,VALID,916.656,VALID,0,VALID,99.1635,VALID,0,VALID,19.896,VALID,108,VALID,0.45638,
2001-04-06, 02:43:00,VALID,916.643,VALID,0.2,VALID,99.1699,VALID,0,VALID,19.8836,VALID,93,VALID,0.881123,
2001-04-06, 02:44:00,VALID,916.637,VALID,0,VALID,99.1597,VALID,0,VALID,19.8672,VALID,96,VALID,0.879464,
2001-04-06, 02:45:00,VALID,916.622,VALID,0,VALID,99.1839,VALID,0,VALID,19.893,VALID,102,VALID,0.617188,
2001-04-06, 02:46:00,VALID,916.618,VALID,0,VALID,99.1928,VALID,0,VALID,19.8866,VALID,109,VALID,0.641258,
2001-04-06, 02:47:00,VALID,916.612,VALID,0.2,VALID,99.1775,VALID,0,VALID,19.8799,VALID,105,VALID,0.396998,
2001-04-06, 02:48:00,VALID,916.608,VALID,0,VALID,99.1826,VALID,0,VALID,19.8963,VALID,96,VALID,0.887035,
2001-04-06, 02:49:00,VALID,916.593,VALID,0,VALID,99.189,VALID,0,VALID,19.903,VALID,101,VALID,1.23672,
2001-04-06, 02:50:00,VALID,916.58,VALID,0,VALID,99.189,VALID,0.0679233,VALID,19.8993,VALID,105,VALID,1.1067,
2001-04-06, 02:51:00,VALID,916.591,VALID,0,VALID,99.1902,VALID,0.0169808,VALID,19.8896,VALID,115,VALID,0.912109,
2001-04-06, 02:52:00,VALID,916.556,VALID,0,VALID,99.1864,VALID,0.0169808,VALID,19.8533,VALID,93,VALID,1.04036,
2001-04-06, 02:53:00,VALID,916.57,VALID,0.2,VALID,99.1852,VALID,0,VALID,19.8737,VALID,157,VALID,0.434211,
2001-04-06, 02:54:00,VALID,916.573,VALID,0,VALID,99.1941,VALID,0,VALID,19.8667,VALID,97,VALID,0.524777,
2001-04-06, 02:55:00,VALID,916.571,VALID,0,VALID,99.1928,VALID,0,VALID,19.867,VALID,43,VALID,0.0228516,
2001-04-06, 02:56:00,VALID,916.598,VALID,0,VALID,99.1839,VALID,-0.0169808,VALID,19.867,VALID,341,VALID,0.253806,
2001-04-06, 02:57:00,VALID,916.599,VALID,0,VALID,99.1941,VALID,0,VALID,19.8543,VALID,260,VALID,0.253084,
2001-04-06, 02:58:00,VALID,916.589,VALID,0.2,VALID,99.1941,VALID,-0.0169808,VALID,19.8476,VALID,215,VALID,0.00966283,
2001-04-06, 02:59:00,VALID,916.6,VALID,0,VALID,99.1991,VALID,0,VALID,19.8602,VALID,288,VALID,0.0595703,
2001-04-06, 03:00:00,VALID,916.619,VALID,0,VALID,99.2119,VALID,0,VALID,19.8771,VALID,107,VALID,0.752673,
2001-04-06, 03:01:00,VALID,916.615,VALID,0,VALID,99.2195,VALID,0,VALID,19.8739,VALID,104,VALID,0.662212,
2001-04-06, 03:02:00,VALID,916.637,VALID,0.2,VALID,99.2195,VALID,0,VALID,19.8734,VALID,82,VALID,0.352407,
2001-04-06, 03:03:00,VALID,916.669,VALID,0,VALID,99.2068,VALID,0,VALID,19.857,VALID,182,VALID,0.894748,
2001-04-06, 03:04:00,VALID,916.669,VALID,0,VALID,99.2004,VALID,0.0169808,VALID,19.8511,VALID,98,VALID,1.25179,
2001-04-06, 03:05:00,VALID,916.693,VALID,0,VALID,99.2169,VALID,0.0169808,VALID,19.8473,VALID,96,VALID,1.13095,
2001-04-06, 03:06:00,VALID,916.716,VALID,0,VALID,99.2258,VALID,0.0169808,VALID,19.8575,VALID,89,VALID,1.13999,
2001-04-06, 03:07:00,VALID,916.741,VALID,0,VALID,99.2258,VALID,-0.0509425,VALID,19.8682,VALID,115,VALID,0.407306,
2001-04-06, 03:08:00,VALID,916.739,VALID,0,VALID,99.2233,VALID,-0.0679233,VALID,19.8786,VALID,101,VALID,1.60444,
2001-04-06, 03:09:00,VALID,916.733,VALID,0,VALID,99.2093,VALID,-0.101885,VALID,19.8655,VALID,61,VALID,1.42778,
2001-04-06, 03:10:00,VALID,916.758,VALID,0.2,VALID,99.2233,VALID,-0.0849042,VALID,19.859,VALID,66,VALID,0.305099,
2001-04-06, 03:11:00,VALID,916.765,VALID,0,VALID,99.2144,VALID,-0.0849042,VALID,19.8329,VALID,105,VALID,0.623561,
2001-04-06, 03:12:00,VALID,916.775,VALID,0,VALID,99.222,VALID,-0.101885,VALID,19.8265,VALID,89,VALID,0.359592,
2001-04-06, 03:13:00,VALID,916.792,VALID,0,VALID,99.2208,VALID,-0.0849042,VALID,19.8103,VALID,206,VALID,0.0878378,
2001-04-06, 03:14:00,VALID,916.811,VALID,0,VALID,99.2208,VALID,-0.101885,VALID,19.8138,VALID,121,VALID,0.535268,
2001-04-06, 03:15:00,VALID,916.803,VALID,0,VALID,99.2322,VALID,-0.101885,VALID,19.8267,VALID,88,VALID,0.740337,
2001-04-06, 03:16:00,VALID,916.797,VALID,0,VALID,99.2347,VALID,-0.101885,VALID,19.8493,VALID,68,VALID,0.322002,
2001-04-06, 03:17:00,VALID,916.801,VALID,0,VALID,99.2373,VALID,-0.0679233,VALID,19.8396,VALID,92,VALID,0.458882,
2001-04-06, 03:18:00,VALID,916.79,VALID,0,VALID,99.2424,VALID,-0.0679233,VALID,19.8526,VALID,85,VALID,0.0684122,
2001-04-06, 03:19:00,VALID,916.798,VALID,0,VALID,99.2398,VALID,-0.0849042,VALID,19.8431,VALID,234,VALID,0.200977,
2001-04-06, 03:20:00,VALID,916.794,VALID,0,VALID,99.2322,VALID,-0.0849042,VALID,19.8297,VALID,246,VALID,0.0953947,
2001-04-06, 03:21:00,VALID,916.784,VALID,0.2,VALID,99.2347,VALID,-0.101885,VALID,19.8297,VALID,154,VALID,0.151042,
2001-04-06, 03:22:00,VALID,916.787,VALID,0,VALID,99.2487,VALID,-0.0509425,VALID,19.8481,VALID,101,VALID,0.180339,
2001-04-06, 03:23:00,VALID,916.766,VALID,0,VALID,99.2424,VALID,0,VALID,19.8314,VALID,107,VALID,0.370066,
2001-04-06, 03:24:00,VALID,916.766,VALID,0,VALID,99.2411,VALID,0,VALID,19.8215,VALID,63,VALID,0.329241,
2001-04-06, 03:25:00,VALID,916.773,VALID,0,VALID,99.2437,VALID,0.0169808,VALID,19.7989,VALID,29,VALID,0.39375,
2001-04-06, 03:26:00,VALID,916.749,VALID,0,VALID,99.2373,VALID,0,VALID,19.7894,VALID,30,VALID,0.45633,
2001-04-06, 03:27:00,VALID,916.73,VALID,0,VALID,99.2437,VALID,0,VALID,19.7797,VALID,41,VALID,0.394737,
2001-04-06, 03:28:00,VALID,916.723,VALID,0,VALID,99.236,VALID,0,VALID,19.7606,VALID,15,VALID,0.618215,
2001-04-06, 03:29:00,VALID,916.695,VALID,0,VALID,99.2398,VALID,0.0169808,VALID,19.7566,VALID,96,VALID,0.614062,
2001-04-06, 03:30:00,VALID,916.681,VALID,0,VALID,99.2335,VALID,-0.0169808,VALID,19.7571,VALID,93,VALID,0.596217,
2001-04-06, 03:31:00,VALID,916.655,VALID,0,VALID,99.2538,VALID,0,VALID,19.77,VALID,104,VALID,0.759252,
2001-04-06, 03:32:00,VALID,916.648,VALID,0,VALID,99.2513,VALID,0,VALID,19.7827,VALID,103,VALID,0.493454,
2001-04-06, 03:33:00,VALID,916.628,VALID,0,VALID,99.2335,VALID,0,VALID,19.7315,VALID,92,VALID,1.19683,
2001-04-06, 03:34:00,VALID,916.637,VALID,0,VALID,99.2335,VALID,0,VALID,19.702,VALID,100,VALID,1.28862,
2001-04-06, 03:35:00,VALID,916.62,VALID,0,VALID,99.2233,VALID,0.0169808,VALID,19.6764,VALID,90,VALID,1.04446,
2001-04-06, 03:36:00,VALID,916.621,VALID,0,VALID,99.2208,VALID,0,VALID,19.657,VALID,95,VALID,0.990287,
2001-04-06, 03:37:00,VALID,916.618,VALID,0,VALID,99.2309,VALID,-0.0339617,VALID,19.6413,VALID,75,VALID,0.457348,